sat.trackr.live / text

‹ back to catalog

2023-117F

NORAD 57585 · 2023-117F

PAYLOAD ACTIVE UNKNOWN

§ Identity

Operator
Country
PRC
Launch date
2023-08-10
Launch site
JSC
Launch vehicle
Mass (kg)
RCS (m²)

External: N2YO · Heavens-Above · Gunter

§ Orbital elements

Epoch: 2026-09-21T23:24:11.538720Z

Period
92.98 min
Inclination
97.4151°
Eccentricity
0.0005026
Mean motion
15.48746167 rev/d
Perigee alt
417.0 km
Apogee alt
423.8 km
Semi-major
6,798.5 km
B*
3.3518e-4
RAAN
353.3749°
Arg perigee
219.5112°
Mean anomaly
140.5773°
Rev number
17,381

§ Raw data

2023-117F1 57585U 23117F   26264.97513355  .00017906  00000+0  33518-3 0  99972 57585  97.4151 353.3749 0005026 219.5112 140.5773 15.48746167173813

JSON: /api/v1/satellites/57585 · /tle

For live sub-satellite position, see the globe view (requires WebGL).

§ Visibility from observer

Set your observer location to see the next 7 days of passes ≥ 10°. The values pass through the URL so the page stays shareable.

No JS? Fill the form by hand. The geolocation button needs JavaScript.